Lid_Strength_Index
8 8 10 11 11 12 13 13 13 13 13 13 13 13 12 12 11 11 11 12 12 12 12 13 13 13 12 12 11 11 11 9 11 11 11 11 12 12 11 10 10 9 11
8 9 10 10 11 13 13 13 13 13 13 13 13 13 12 12 12 12 13 13 13 14 14 14 14 14 13 12 12 12 12 11 11 12 12 11 12 12 11 11 11 10 12
8 9 11 12 12 13 14 13 13 13 14 13 13 12 12 12 12 12 13 13 13 14 14 14 15 14 14 13 13 13 12 12 11 12 12 11 11 12 11 11 12 11 12
10 11 13 13 14 13 13 14 13 13 14 13 13 12 12 12 13 13 13 14 14 14 14 15 15 15 15 14 14 14 12 12 12 12 12 12 12 12 12 13 12 11 13
9 10 11 13 13 14 14 14 14 13 13 13 13 13 12 13 12 13 13 14 14 14 14 14 14 14 15 14 13 13 13 12 12 12 13 12 14 14 14 13 13 12 12
8 10 11 12 13 14 14 14 14 14 14 14 14 13 13 13 13 13 13 14 14 14 14 14 13 13 14 13 13 14 13 13 13 13 13 15 16 15 13 13 14 14 14
8 8 10 11 12 13 13 14 14 14 14 14 14 13 13 13 13 13 14 13 14 14 14 14 13 12 13 12 12 13 13 14 14 13 14 15 15 15 15 14 14 14 15
7 8 10 11 11 12 13 13 14 14 14 14 14 14 14 14 13 14 14 14 14 14 14 13 13 13 13 14 13 13 13 13 13 13 14 14 14 13 13 13 14 14 14
6 7 8 9 10 11 12 13 13 14 14 14 14 14 14 14 13 14 14 15 15 14 14 13 13 12 13 13 13 13 13 13 13 13 14 14 14 14 14 12 14 15 15
6 6 7 8 10 11 12 12 13 13 14 14 14 14 14 13 13 14 14 15 15 15 14 13 13 13 13 13 13 13 14 15 14 15 15 15 15 14 15 14 13 15 16
5 7 8 8 10 11 11 12 13 14 14 14 14 14 13 12 12 13 14 14 14 15 14 14 13 13 13 13 13 13 13 15 17 15 14 13 13 13 14 14 14 14 15
6 8 9 10 10 10 11 12 13 14 15 15 15 15 13 12 12 13 13 13 14 14 13 13 12 13 13 13 13 14 15 16 14 14 14 14 14 14 14 14 15 15 15
9 10 10 10 10 11 12 13 13 14 15 15 15 15 14 13 13 13 13 14 13 13 13 13 13 13 13 13 13 14 16 14 14 15 15 14 14 15 14 14 14 15 15
10 11 11 11 11 11 10 11 12 14 14 15 14 15 14 14 13 12 12 13 13 13 14 13 12 12 13 13 13 14 13 13 14 14 14 14 14 13 14 14 14 15 15
10 11 11 11 11 11 11 12 12 12 13 14 14 14 14 14 12 11 11 12 12 13 13 13 13 13 14 14 14 15 14 14 15 14 14 14 14 13 14 14 15 15 16
10 10 11 13 13 12 12 13 12 12 12 12 13 13 13 12 12 11 11 11 12 14 13 14 14 14 14 14 14 14 14 15 14 14 14 14 14 15 15 15 15 15 16
10 11 11 12 12 13 13 14 15 13 12 12 12 13 13 13 12 11 11 11 12 14 13 13 14 14 13 13 13 14 14 14 15 14 15 15 15 15 16 16 16 16 16
9 10 10 11 11 12 12 12 12 13 13 13 12 13 12 12 11 11 11 11 13 14 13 13 13 13 13 13 13 14 14 14 14 15 15 15 15 15 15 16 16 16 16
8 9 9 10 10 11 12 12 12 13 13 13 12 12 11 11 11 10 11 12 14 14 13 13 13 13 13 13 12 13 13 14 14 14 15 15 15 15 15 15 16 19 18
8 8 9 10 11 11 11 12 12 12 12 12 13 13 12 12 12 12 11 12 12 13 13 13 13 13 12 12 12 13 13 14 15 15 15 15 15 15 15 16 16 16 16
7 8 8 9 11 11 11 11 11 12 11 12 12 11 12 12 12 12 12 12 12 13 13 13 12 12 12 12 13 13 14 14 14 15 15 15 16 16 15 15 16 16 16
7 7 7 8 9 10 11 11 11 12 12 12 12 12 12 11 11 12 11 11 11 11 12 12 12 12 13 13 13 14 14 15 15 15 15 15 16 15 15 16 16 16 16
5 6 7 8 8 9 10 11 11 11 11 11 11 12 13 11 11 12 11 11 11 11 12 12 12 13 13 13 13 13 14 15 14 14 15 15 16 15 16 16 17 17 17
7 7 7 8 8 8 9 10 10 11 11 11 11 11 12 11 11 11 11 11 12 12 13 14 14 14 14 14 14 14 14 14 14 15 15 15 15 16 16 16 17 17 17
7 7 7 7 8 8 9 10 10 11 10 10 11 11 11 11 12 11 12 13 13 14 14 15 14 15 16 16 16 15 16 17 16 16 15 15 16 17 17 17 17 17 17
7 7 7 7 8 8 9 11 10 10 11 11 11 11 10 11 12 12 13 14 15 15 15 15 15 15 16 17 17 17 18 19 19 17 16 16 17 17 17 17 17 17 17